Regional Weather Roundup
Issued by NWS

Home | Current Version | Previous Version | Text Only | Print | Product List | Glossary On
Versions: 1 2 3 4 5 6 7 8 9 10 11 12 13 14 15 16 17 18 19 20 21 22 23 24 25 26 27 28 29 30 31 32 33 34 35 36 37 38 39 40 41 42 43 44 45 46 47 48 49 50
878
ASUS44 KJAN 011410
RWRMS

MISSISSIPPI HOURLY WEATHER ROUNDUP
NATIONAL WEATHER SERVICE JACKSON MS
900 AM CDT MON SEP 01 2014

NOTE: "FAIR: INDICATES FEW OR NO CLOUDS BELOW 12,000 FEET WITH NO
SIGNIFICANT WEATHER AND/OR OBSTRUCTIONS TO VISIBILITY.

MSZ001>002-007>008-010>013-018>021-025>028-034>036-011500-
NORTHWEST MISSISSIPPI

CITY           SKY/WX    TMP DP  RH WIND       PRES   REMARKS
CLARKSDALE     PTSUNNY   81  77  89 CALM      30.07R
CLEVELAND      CLOUDY    79  77  92 S6        30.04S
GREENWOOD      MOSUNNY   80  75  84 S9        30.07R
GREENVILLE     CLOUDY    79  76  90 S9        30.04S
GRENADA        PTSUNNY   79  73  83 S3        30.08R
OXFORD         FAIR      77  73  88 SW7       30.10R
TUNICA         PTSUNNY   79  75  89 S8        30.06F
$$

MSZ003>006-009-014>017-022>024-029>033-037>039-011500-
NORTHEAST MISSISSIPPI

CITY           SKY/WX    TMP DP  RH WIND       PRES   REMARKS
BELMONT        PTSUNNY   78  74  87 W7        30.11R
COLUMBUS AFB   SUNNY     80  73  79 VRB2      30.09R
CORINTH        FAIR      81  73  78 SW7G13    30.08S
GOLDN TRIANGLE SUNNY     79  72  78 SW7       30.10R
STARKVILLE     FAIR      77  73  88 SW3       30.09R
TUPELO         PTSUNNY   80  74  81 SW7       30.09R
$$

MSZ040-058-011500-
CENTRAL MISSISSIPPI

CITY           SKY/WX    TMP DP  RH WIND       PRES   REMARKS
JACKSON INTL   PTSUNNY   78  76  93 SE6       30.07S
JACKSON HAWKNS MOSUNNY   79  75  87 SE7       30.07S
MERIDIAN KEY   PTSUNNY   81  75  82 S8        30.09S
MERIDIAN NAS   PTSUNNY   81  75  82 CALM      30.09F
RAYMOND        FAIR      81  75  83 SE3       30.07R
VICKSBURG      MOSUNNY   81  76  84 S7        30.05R
$$

MSZ059>079-011500-
SOUTH MISSISSIPPI

CITY           SKY/WX    TMP DP  RH WIND       PRES   REMARKS
BROOKHAVEN     PTSUNNY   81  79  94 SE9       30.09S FOG
HATTIESBURG    PTSUNNY   77  75  93 SE3       30.10R FOG
MCCOMB         PTSUNNY   78  76  93 SE6       30.07F
NATCHEZ        CLOUDY    81  77  89 SE10      30.06R
PINE BELT      SUNNY     79  73  83 CALM      30.11R
$$

MSZ080>082-011500-
COASTAL MISSISSIPPI

CITY           SKY/WX    TMP DP  RH WIND       PRES   REMARKS
BAY ST LOUIS   MOSUNNY  N/A N/A N/A SE6       30.07R
BILOXI         MOSUNNY   87  76  70 SE8       30.07R HX  97
PASCAGOULA     MOSUNNY   83  77  82 VRB3      30.08R HX  92
GULFPORT       SUNNY     86  76  71 SE14      30.06S HX  96
$$



USA.gov is the U.S. government's official web portal to all federal, state and local government web resources and services.